Time,TemperatureF,DewpointF,PressureIn,WindDirection,WindDirectionDegrees,WindSpeedMPH,WindSpeedGustMPH,Humidity,HourlyPrecipIn,Conditions,Clouds,dailyrainin,SoftwareType,DateUTC
2013-07-18 00:01:00,68.0,25.0,-100.00,East,97,2.0,9.0,20,-99.99,,,-99.99,,2013-07-18 07:01:00,
2013-07-18 00:11:00,68.0,25.0,-100.00,East,97,2.0,9.0,20,-99.99,,,-99.99,,2013-07-18 07:11:00,
2013-07-18 00:42:00,66.0,25.0,-100.00,North,-999,-999.0,-999.0,21,-99.99,,,-99.99,,2013-07-18 07:42:00,
2013-07-18 00:52:00,66.0,25.0,-100.00,North,-999,-999.0,-999.0,21,-99.99,,,-99.99,,2013-07-18 07:52:00,
2013-07-18 01:01:00,67.0,28.0,-100.00,North,-999,-999.0,-999.0,23,-99.99,,,-99.99,,2013-07-18 08:01:00,
2013-07-18 01:11:00,67.0,28.0,-100.00,North,-999,-999.0,-999.0,23,-99.99,,,-99.99,,2013-07-18 08:11:00,
2013-07-18 01:21:00,67.0,28.0,-100.00,North,-999,-999.0,-999.0,23,-99.99,,,-99.99,,2013-07-18 08:21:00,
2013-07-18 01:32:00,67.0,28.0,-100.00,North,-999,-999.0,-999.0,23,-99.99,,,-99.99,,2013-07-18 08:32:00,
2013-07-18 01:42:00,65.0,31.0,-100.00,North,-999,-999.0,-999.0,28,-99.99,,,-99.99,,2013-07-18 08:42:00,
2013-07-18 01:51:00,65.0,31.0,-100.00,North,-999,-999.0,-999.0,28,-99.99,,,-99.99,,2013-07-18 08:51:00,
2013-07-18 02:01:00,65.0,31.0,-100.00,North,-999,-999.0,-999.0,28,-99.99,,,-99.99,,2013-07-18 09:01:00,
2013-07-18 02:11:00,65.0,31.0,-100.00,North,-999,-999.0,-999.0,28,-99.99,,,-99.99,,2013-07-18 09:11:00,
2013-07-18 02:21:00,64.0,31.0,-100.00,North,-999,-999.0,-999.0,28,-99.99,,,-99.99,,2013-07-18 09:21:00,
2013-07-18 02:32:00,64.0,31.0,-100.00,North,-999,-999.0,-999.0,28,-99.99,,,-99.99,,2013-07-18 09:32:00,
2013-07-18 02:42:00,64.0,31.0,-100.00,North,-999,-999.0,-999.0,28,-99.99,,,-99.99,,2013-07-18 09:42:00,
2013-07-18 02:51:00,64.0,31.0,-100.00,North,-999,-999.0,-999.0,28,-99.99,,,-99.99,,2013-07-18 09:51:00,
2013-07-18 03:01:00,63.0,29.0,-100.00,North,-999,-999.0,-999.0,28,-99.99,,,-99.99,,2013-07-18 10:01:00,
2013-07-18 03:11:00,63.0,29.0,-100.00,North,-999,-999.0,-999.0,28,-99.99,,,-99.99,,2013-07-18 10:11:00,
2013-07-18 03:21:00,63.0,29.0,-100.00,North,-999,-999.0,-999.0,28,-99.99,,,-99.99,,2013-07-18 10:21:00,
2013-07-18 03:32:00,63.0,29.0,-100.00,North,-999,-999.0,-999.0,28,-99.99,,,-99.99,,2013-07-18 10:32:00,
2013-07-18 03:42:00,61.0,29.0,-100.00,North,-999,-999.0,-999.0,29,-99.99,,,-99.99,,2013-07-18 10:42:00,
2013-07-18 03:52:00,61.0,29.0,-100.00,North,-999,-999.0,-999.0,29,-99.99,,,-99.99,,2013-07-18 10:52:00,
2013-07-18 04:01:00,61.0,29.0,-100.00,North,-999,-999.0,-999.0,29,-99.99,,,-99.99,,2013-07-18 11:01:00,
2013-07-18 04:11:00,61.0,29.0,-100.00,North,-999,-999.0,-999.0,29,-99.99,,,-99.99,,2013-07-18 11:11:00,
2013-07-18 04:22:00,62.0,28.0,-100.00,North,-999,-999.0,-999.0,28,-99.99,,,-99.99,,2013-07-18 11:22:00,
2013-07-18 04:32:00,62.0,29.0,-100.00,SE,130,0.0,3.0,28,-99.99,,,-99.99,,2013-07-18 11:32:00,
2013-07-18 04:43:00,62.0,29.0,-100.00,SE,130,0.0,3.0,28,-99.99,,,-99.99,,2013-07-18 11:43:00,
2013-07-18 04:52:00,62.0,29.0,-100.00,SE,130,0.0,3.0,28,-99.99,,,-99.99,,2013-07-18 11:52:00,
2013-07-18 05:01:00,62.0,29.0,-100.00,SE,130,0.0,3.0,28,-99.99,,,-99.99,,2013-07-18 12:01:00,
2013-07-18 05:33:00,61.0,28.0,-100.00,North,-999,-999.0,-999.0,29,-99.99,,,-99.99,,2013-07-18 12:33:00,
2013-07-18 05:42:00,61.0,29.0,-100.00,ESE,104,2.0,5.0,29,-99.99,,,-99.99,,2013-07-18 12:42:00,
2013-07-18 05:52:00,61.0,29.0,-100.00,ESE,104,2.0,5.0,29,-99.99,,,-99.99,,2013-07-18 12:52:00,
2013-07-18 06:01:00,61.0,29.0,-100.00,ESE,104,2.0,5.0,29,-99.99,,,-99.99,,2013-07-18 13:01:00,
2013-07-18 06:11:00,61.0,29.0,-100.00,ESE,104,2.0,5.0,29,-99.99,,,-99.99,,2013-07-18 13:11:00,
2013-07-18 06:22:00,61.0,29.0,-100.00,ESE,104,2.0,5.0,29,-99.99,,,-99.99,,2013-07-18 13:22:00,
2013-07-18 06:43:00,59.0,24.0,-100.00,North,352,2.0,5.0,26,-99.99,,,-99.99,,2013-07-18 13:43:00,
2013-07-18 06:53:00,59.0,24.0,-100.00,North,352,2.0,5.0,26,-99.99,,,-99.99,,2013-07-18 13:53:00,
2013-07-18 07:02:00,59.0,24.0,-100.00,North,352,2.0,5.0,26,-99.99,,,-99.99,,2013-07-18 14:02:00,
2013-07-18 07:22:00,66.0,24.0,-100.00,WNW,284,1.0,4.0,20,-99.99,,,-99.99,,2013-07-18 14:22:00,
2013-07-18 07:32:00,66.0,24.0,-100.00,WNW,284,1.0,4.0,20,-99.99,,,-99.99,,2013-07-18 14:32:00,
2013-07-18 07:43:00,66.0,24.0,-100.00,WNW,284,1.0,4.0,20,-99.99,,,-99.99,,2013-07-18 14:43:00,
2013-07-18 08:11:00,71.0,18.0,-100.00,NNW,339,1.0,5.0,13,-99.99,,,-99.99,,2013-07-18 15:11:00,
2013-07-18 08:22:00,71.0,18.0,-100.00,NNW,339,1.0,5.0,13,-99.99,,,-99.99,,2013-07-18 15:22:00,
2013-07-18 08:31:00,73.0,21.0,-100.00,WNW,302,4.0,8.0,14,-99.99,,,-99.99,,2013-07-18 15:31:00,
2013-07-18 08:43:00,72.0,20.0,-100.00,WNW,302,5.0,8.0,14,-99.99,,,-99.99,,2013-07-18 15:43:00,
2013-07-18 08:53:00,72.0,20.0,-100.00,WNW,302,5.0,8.0,14,-99.99,,,-99.99,,2013-07-18 15:53:00,
2013-07-18 09:01:00,73.0,21.0,-100.00,WNW,302,4.0,8.0,14,-99.99,,,-99.99,,2013-07-18 16:01:00,
2013-07-18 09:11:00,73.0,21.0,-100.00,WNW,302,4.0,8.0,14,-99.99,,,-99.99,,2013-07-18 16:11:00,
2013-07-18 09:22:00,73.0,21.0,-100.00,WNW,302,4.0,8.0,14,-99.99,,,-99.99,,2013-07-18 16:22:00,
2013-07-18 09:42:00,72.0,22.0,-100.00,WNW,296,3.0,7.0,15,-99.99,,,-99.99,,2013-07-18 16:42:00,
2013-07-18 09:52:00,72.0,22.0,-100.00,WNW,296,3.0,7.0,15,-99.99,,,-99.99,,2013-07-18 16:52:00,
2013-07-18 10:02:00,72.0,22.0,-100.00,WNW,296,3.0,7.0,15,-99.99,,,-99.99,,2013-07-18 17:02:00,
2013-07-18 10:11:00,72.0,22.0,-100.00,WNW,296,3.0,7.0,15,-99.99,,,-99.99,,2013-07-18 17:11:00,
2013-07-18 10:43:00,77.0,20.0,-100.00,WSW,256,3.0,8.0,12,-99.99,,,-99.99,,2013-07-18 17:43:00,
2013-07-18 10:52:00,77.0,20.0,-100.00,WSW,256,3.0,8.0,12,-99.99,,,-99.99,,2013-07-18 17:52:00,
2013-07-18 11:01:00,77.0,20.0,-100.00,WSW,256,3.0,8.0,12,-99.99,,,-99.99,,2013-07-18 18:01:00,
2013-07-18 11:11:00,77.0,20.0,-100.00,WSW,256,3.0,8.0,12,-99.99,,,-99.99,,2013-07-18 18:11:00,
2013-07-18 11:43:00,80.0,22.0,-100.00,North,-999,-999.0,-999.0,12,-99.99,,,-99.99,,2013-07-18 18:43:00,
2013-07-18 11:52:00,80.0,23.0,-100.00,WNW,302,5.0,9.0,12,-99.99,,,-99.99,,2013-07-18 18:52:00,
2013-07-18 12:01:00,80.0,23.0,-100.00,WNW,302,5.0,9.0,12,-99.99,,,-99.99,,2013-07-18 19:01:00,
2013-07-18 12:11:00,80.0,23.0,-100.00,WNW,302,5.0,9.0,12,-99.99,,,-99.99,,2013-07-18 19:11:00,
2013-07-18 12:53:00,79.0,22.0,-100.00,NW,305,4.0,10.0,12,-99.99,,,-99.99,,2013-07-18 19:53:00,
2013-07-18 13:01:00,79.0,22.0,-100.00,NW,305,4.0,10.0,12,-99.99,,,-99.99,,2013-07-18 20:01:00,
2013-07-18 13:11:00,79.0,22.0,-100.00,NW,305,4.0,10.0,12,-99.99,,,-99.99,,2013-07-18 20:11:00,
2013-07-18 13:43:00,82.0,26.0,-100.00,North,-999,-999.0,-999.0,13,-99.99,,,-99.99,,2013-07-18 20:43:00,
2013-07-18 13:52:00,82.0,26.0,-100.00,WSW,244,4.0,17.0,13,-99.99,,,-99.99,,2013-07-18 20:52:00,
2013-07-18 14:01:00,82.0,26.0,-100.00,WSW,244,4.0,17.0,13,-99.99,,,-99.99,,2013-07-18 21:01:00,
2013-07-18 14:11:00,82.0,26.0,-100.00,WSW,244,4.0,17.0,13,-99.99,,,-99.99,,2013-07-18 21:11:00,
2013-07-18 14:20:00,83.0,29.0,-100.00,ESE,121,4.0,9.0,14,-99.99,,,-99.99,,2013-07-18 21:20:00,
2013-07-18 14:52:00,83.0,29.0,-100.00,ESE,121,4.0,9.0,14,-99.99,,,-99.99,,2013-07-18 21:52:00,
2013-07-18 15:01:00,83.0,29.0,-100.00,ESE,121,4.0,9.0,14,-99.99,,,-99.99,,2013-07-18 22:01:00,
2013-07-18 15:11:00,83.0,29.0,-100.00,ESE,121,4.0,9.0,14,-99.99,,,-99.99,,2013-07-18 22:11:00,
2013-07-18 15:22:00,84.0,28.0,-100.00,WSW,256,5.0,10.0,13,-99.99,,,-99.99,,2013-07-18 22:22:00,
2013-07-18 15:43:00,84.0,28.0,-100.00,North,-999,-999.0,-999.0,13,-99.99,,,-99.99,,2013-07-18 22:43:00,
2013-07-18 15:53:00,84.0,28.0,-100.00,WSW,256,5.0,10.0,13,-99.99,,,-99.99,,2013-07-18 22:53:00,
2013-07-18 16:02:00,84.0,28.0,-100.00,WSW,256,5.0,10.0,13,-99.99,,,-99.99,,2013-07-18 23:02:00,
2013-07-18 16:11:00,84.0,28.0,-100.00,WSW,256,5.0,10.0,13,-99.99,,,-99.99,,2013-07-18 23:11:00,
2013-07-18 16:42:00,84.0,29.0,-100.00,North,-999,-999.0,-999.0,14,-99.99,,,-99.99,,2013-07-18 23:42:00,
2013-07-18 16:52:00,84.0,30.0,-100.00,NNE,30,3.0,7.0,14,-99.99,,,-99.99,,2013-07-18 23:52:00,
2013-07-18 17:01:00,84.0,30.0,-100.00,NNE,30,3.0,7.0,14,-99.99,,,-99.99,,2013-07-19 00:01:00,
2013-07-18 17:11:00,84.0,30.0,-100.00,NNE,30,3.0,7.0,14,-99.99,,,-99.99,,2013-07-19 00:11:00,
2013-07-18 17:22:00,84.0,30.0,-100.00,NNE,30,3.0,7.0,14,-99.99,,,-99.99,,2013-07-19 00:22:00,
2013-07-18 18:11:00,84.0,28.0,-100.00,WNW,288,4.0,8.0,13,-99.99,,,-99.99,,2013-07-19 01:11:00,
2013-07-18 18:21:00,83.0,27.0,-100.00,ENE,76,4.0,11.0,13,-99.99,,,-99.99,,2013-07-19 01:21:00,
2013-07-18 18:32:00,83.0,27.0,-100.00,ENE,76,4.0,11.0,13,-99.99,,,-99.99,,2013-07-19 01:32:00,
2013-07-18 18:42:00,83.0,27.0,-100.00,ENE,76,4.0,11.0,13,-99.99,,,-99.99,,2013-07-19 01:42:00,
2013-07-18 19:01:00,84.0,30.0,-100.00,NE,56,3.0,11.0,14,-99.99,,,-99.99,,2013-07-19 02:01:00,
2013-07-18 19:11:00,84.0,30.0,-100.00,NE,56,3.0,11.0,14,-99.99,,,-99.99,,2013-07-19 02:11:00,
2013-07-18 19:22:00,84.0,30.0,-100.00,NE,56,3.0,11.0,14,-99.99,,,-99.99,,2013-07-19 02:22:00,
2013-07-18 20:11:00,82.0,26.0,-100.00,ENE,69,7.0,10.0,13,-99.99,,,-99.99,,2013-07-19 03:11:00,
2013-07-18 20:22:00,82.0,26.0,-100.00,ENE,69,7.0,10.0,13,-99.99,,,-99.99,,2013-07-19 03:22:00,
2013-07-18 20:51:00,78.0,35.0,-100.00,ENE,59,7.0,12.0,21,-99.99,,,-99.99,,2013-07-19 03:51:00,
2013-07-18 21:12:00,79.0,34.0,-100.00,ENE,73,7.0,12.0,20,-99.99,,,-99.99,,2013-07-19 04:12:00,
2013-07-18 21:22:00,79.0,34.0,-100.00,ENE,73,7.0,12.0,20,-99.99,,,-99.99,,2013-07-19 04:22:00,
2013-07-18 21:43:00,78.0,35.0,-100.00,ENE,59,7.0,12.0,21,-99.99,,,-99.99,,2013-07-19 04:43:00,
2013-07-18 21:51:00,77.0,36.0,-100.00,ENE,71,13.0,21.0,23,-99.99,,,-99.99,,2013-07-19 04:51:00,
2013-07-18 22:02:00,77.0,36.0,-100.00,ENE,73,11.0,19.0,23,-99.99,,,-99.99,,2013-07-19 05:02:00,
2013-07-18 22:11:00,77.0,36.0,-100.00,ENE,73,11.0,19.0,23,-99.99,,,-99.99,,2013-07-19 05:11:00,
2013-07-18 22:21:00,77.0,36.0,-100.00,ENE,73,11.0,19.0,23,-99.99,,,-99.99,,2013-07-19 05:21:00,
2013-07-18 22:32:00,77.0,36.0,-100.00,ENE,71,13.0,21.0,23,-99.99,,,-99.99,,2013-07-19 05:32:00,
2013-07-18 22:42:00,77.0,36.0,-100.00,ENE,71,13.0,21.0,23,-99.99,,,-99.99,,2013-07-19 05:42:00,
2013-07-18 23:01:00,76.0,37.0,-100.00,ENE,64,12.0,19.0,24,-99.99,,,-99.99,,2013-07-19 06:01:00,
2013-07-18 23:11:00,76.0,37.0,-100.00,ENE,64,12.0,19.0,24,-99.99,,,-99.99,,2013-07-19 06:11:00,
2013-07-18 23:22:00,75.0,36.0,-100.00,ENE,72,9.0,15.0,24,-99.99,,,-99.99,,2013-07-19 06:22:00,
2013-07-18 23:32:00,75.0,36.0,-100.00,ENE,72,9.0,15.0,24,-99.99,,,-99.99,,2013-07-19 06:32:00,
2013-07-18 23:43:00,73.0,37.0,-100.00,East,88,8.0,12.0,27,-99.99,,,-99.99,,2013-07-19 06:43:00,
2013-07-18 23:52:00,73.0,37.0,-100.00,East,88,8.0,12.0,27,-99.99,,,-99.99,,2013-07-19 06:52:00,
2013-07-18 23:53:00,72.0,37.0,-100.00,East,97,9.0,13.0,28,-99.99,,,-99.99,,2013-07-19 06:53:00,